Volver al catálogo

CZ-4 DEB

ActivoSSO
NORAD 35327·DEBRIS·🇨🇳 China

Lanzado Oct 14, 1999 desde Taiyuan Satellite Launch Center

Loading…

Próximos Pases (próximas 24 horas)

TLE

EnvejeciendoSource: Space-Track

Época: Sep 7, 2026, 11:23 UTC

1 35327U 99057SF  26250.47457346  .00001624  00000-0  31098-3 0  9992
2 35327  98.4631 343.0038 0071118 216.3446 143.2914 14.63694321725375

Sigue CZ-4 DEB en tiempo real con AllMySat

Download on the App Store